Location: Camaret
(48.2753°N, 4.5961°W)
Time: 00:09:24
(UTC+00:00)

USA 305 - Pass Details

Date: 29 October 2020
Orbit: 569 x 577 km, 54.0° (Epoch: 22 November)

Event Time Altitude Azimuth Distance (km) Brightness Sun altitude
Rises 19:27:32 0° 296° (WNW) 2,786 7.6 -24.4°
Reaches altitude 10° 19:29:56 10° 288° (WNW) 1,883 6.6 -24.8°
Maximum altitude 19:33:51 36° 222° (SW) 922 4.1 -25.5°
Enters shadow 19:34:18 35° 207° (SSW) 941 4.1 -25.5°
